DLH9LV EDDF-EDDM

Flight info

Callsign DLH9LV
Flight time 0h 39m
Altitude 23000
Route CINDY8S/18 CINDY Z74 HAREM T104 ROKIL ROKIL1B
Aircraft A320/M-SDE2E3FGIJ1LORWXYZ/HB1

Departure

Time 2026-05-05 17:41
Airport Frankfurt Main Airport (EDDF)

Arrival

Time 2026-05-05 18:20
Airport Munich Airport (EDDM)
Time Latitude Longitude Altitude Speed Heading
2026-05-05 17:12 50.04431 8.56329 359 ft 0 kts 167°
2026-05-05 17:25 50.04461 8.56318 361 ft 3 kts 166°
2026-05-05 17:25 50.04483 8.56313 356 ft 4 kts 192°
2026-05-05 17:26 50.04502 8.56330 361 ft 4 kts 239°
2026-05-05 17:26 50.04513 8.56368 361 ft 3 kts 250°
2026-05-05 17:26 50.04514 8.56373 361 ft 1 kts 249°
2026-05-05 17:30 50.04508 8.56352 359 ft 6 kts 249°
2026-05-05 17:30 50.04492 8.56284 361 ft 6 kts 249°
2026-05-05 17:30 50.04476 8.56218 359 ft 10 kts 250°
2026-05-05 17:31 50.04452 8.56117 361 ft 9 kts 249°
2026-05-05 17:31 50.04420 8.56036 356 ft 9 kts 213°
2026-05-05 17:31 50.04359 8.56042 355 ft 9 kts 161°
2026-05-05 17:31 50.04292 8.56074 349 ft 11 kts 183°
2026-05-05 17:32 50.04256 8.56010 352 ft 7 kts 250°
2026-05-05 17:32 50.04228 8.55891 353 ft 18 kts 250°
2026-05-05 17:32 50.04177 8.55680 361 ft 21 kts 249°
2026-05-05 17:32 50.04123 8.55455 362 ft 23 kts 249°
2026-05-05 17:33 50.04068 8.55223 361 ft 23 kts 249°
2026-05-05 17:33 50.04010 8.54981 360 ft 25 kts 250°
2026-05-05 17:33 50.03947 8.54716 360 ft 28 kts 250°
2026-05-05 17:33 50.03877 8.54426 360 ft 29 kts 247°
2026-05-05 17:34 50.03788 8.54163 365 ft 27 kts 251°
2026-05-05 17:34 50.03721 8.53893 369 ft 26 kts 250°
2026-05-05 17:34 50.03654 8.53613 360 ft 29 kts 248°
2026-05-05 17:34 50.03594 8.53374 363 ft 22 kts 250°
2026-05-05 17:35 50.03540 8.53140 365 ft 24 kts 251°
2026-05-05 17:35 50.03484 8.52918 371 ft 17 kts 248°
2026-05-05 17:35 50.03456 8.52813 377 ft 6 kts 247°
2026-05-05 17:35 50.03448 8.52784 378 ft 1 kts 247°
2026-05-05 17:36 50.03444 8.52767 378 ft 3 kts 247°
2026-05-05 17:36 50.03436 8.52738 379 ft 2 kts 248°
2026-05-05 17:36 50.03435 8.52736 379 ft 0 kts 248°
2026-05-05 17:39 50.03422 8.52676 380 ft 12 kts 251°
2026-05-05 17:39 50.03395 8.52598 379 ft 7 kts 198°
2026-05-05 17:39 50.03369 8.52595 377 ft 0 kts 180°
2026-05-05 17:40 50.03348 8.52595 377 ft 19 kts 180°
2026-05-05 17:40 50.02920 8.52599 371 ft 100 kts 180°
2026-05-05 17:40 50.01995 8.52608 356 ft 159 kts 180°
2026-05-05 17:40 50.00831 8.52629 840 ft 172 kts 179°
2026-05-05 17:41 49.99632 8.52644 1702 ft 170 kts 180°
2026-05-05 17:41 49.98423 8.52644 2250 ft 186 kts 180°
2026-05-05 17:41 49.97079 8.53002 2629 ft 211 kts 154°
2026-05-05 17:41 49.95946 8.54575 3216 ft 229 kts 122°
2026-05-05 17:42 49.95156 8.56760 4143 ft 234 kts 119°
2026-05-05 17:42 49.94382 8.58991 5086 ft 237 kts 113°
2026-05-05 17:42 49.94000 8.61531 5814 ft 253 kts 94°
2026-05-05 17:42 49.93892 8.64369 6407 ft 272 kts 93°
2026-05-05 17:43 49.93604 8.67337 7290 ft 279 kts 108°
2026-05-05 17:43 49.92757 8.70018 8197 ft 283 kts 126°
2026-05-05 17:43 49.91377 8.72205 9126 ft 286 kts 144°
2026-05-05 17:43 49.89748 8.74000 10030 ft 290 kts 142°
2026-05-05 17:44 49.88286 8.76190 10741 ft 303 kts 129°
2026-05-05 17:44 49.87115 8.79034 11140 ft 323 kts 118°
2026-05-05 17:44 49.86020 8.82129 11862 ft 331 kts 119°
2026-05-05 17:44 49.84895 8.85286 12685 ft 336 kts 119°
2026-05-05 17:45 49.83751 8.88468 13476 ft 340 kts 119°
2026-05-05 17:45 49.82585 8.91691 14247 ft 344 kts 119°
2026-05-05 17:45 49.81402 8.94941 14990 ft 348 kts 120°
2026-05-05 17:45 49.80188 8.98264 15714 ft 352 kts 120°
2026-05-05 17:46 49.78990 9.01537 16417 ft 356 kts 120°
2026-05-05 17:46 49.77763 9.04885 17102 ft 360 kts 120°
2026-05-05 17:46 49.76566 9.08306 17779 ft 364 kts 114°
2026-05-05 17:46 49.75731 9.12024 18420 ft 368 kts 104°
2026-05-05 17:47 49.75049 9.15909 19047 ft 371 kts 110°
2026-05-05 17:47 49.73979 9.19471 19680 ft 374 kts 121°
2026-05-05 17:47 49.72473 9.22703 20282 ft 377 kts 131°
2026-05-05 17:47 49.70735 9.25749 20890 ft 381 kts 131°
2026-05-05 17:48 49.68976 9.28839 21469 ft 384 kts 131°
2026-05-05 17:48 49.67210 9.31951 22005 ft 388 kts 131°
2026-05-05 17:48 49.65401 9.35143 22553 ft 391 kts 131°
2026-05-05 17:48 49.63600 9.38318 22906 ft 394 kts 131°
2026-05-05 17:49 49.61801 9.41488 22994 ft 387 kts 131°
2026-05-05 17:49 49.60066 9.44538 23008 ft 370 kts 131°
2026-05-05 17:49 49.58385 9.47489 23007 ft 364 kts 131°
2026-05-05 17:49 49.56718 9.50412 23010 ft 363 kts 131°
2026-05-05 17:50 49.55054 9.53331 23009 ft 362 kts 131°
2026-05-05 17:50 49.53392 9.56249 23008 ft 362 kts 131°
2026-05-05 17:50 49.51730 9.59166 23010 ft 362 kts 131°
2026-05-05 17:50 49.50069 9.62079 23009 ft 362 kts 131°
2026-05-05 17:51 49.48406 9.64988 23010 ft 362 kts 131°
2026-05-05 17:51 49.46742 9.67896 23008 ft 362 kts 131°
2026-05-05 17:51 49.45076 9.70802 23008 ft 362 kts 131°
2026-05-05 17:51 49.43417 9.73693 23007 ft 362 kts 131°
2026-05-05 17:52 49.41747 9.76594 23007 ft 362 kts 131°
2026-05-05 17:52 49.40078 9.79490 23005 ft 362 kts 131°
2026-05-05 17:52 49.38408 9.82381 23006 ft 362 kts 131°
2026-05-05 17:52 49.36744 9.85262 23004 ft 362 kts 131°
2026-05-05 17:53 49.35070 9.88151 23004 ft 362 kts 131°
2026-05-05 17:53 49.33396 9.91039 23003 ft 362 kts 132°
2026-05-05 17:53 49.31722 9.93925 23003 ft 362 kts 132°
2026-05-05 17:53 49.30050 9.96807 23002 ft 362 kts 131°
2026-05-05 17:54 49.28382 9.99681 23002 ft 362 kts 132°
2026-05-05 17:54 49.26704 10.02562 23002 ft 362 kts 132°
2026-05-05 17:54 49.25049 10.05398 23003 ft 362 kts 132°
2026-05-05 17:54 49.23346 10.08308 23003 ft 362 kts 132°
2026-05-05 17:55 49.21667 10.11179 23005 ft 362 kts 132°
2026-05-05 17:55 49.19987 10.14051 23006 ft 362 kts 132°
2026-05-05 17:55 49.18309 10.16919 23003 ft 362 kts 132°
2026-05-05 17:55 49.16636 10.19780 23004 ft 362 kts 132°
2026-05-05 17:56 49.14958 10.22648 23003 ft 362 kts 132°
2026-05-05 17:56 49.13275 10.25501 23003 ft 362 kts 133°
2026-05-05 17:56 49.11559 10.28312 23003 ft 362 kts 133°
2026-05-05 17:56 49.09827 10.31090 22942 ft 361 kts 134°
2026-05-05 17:57 49.08099 10.33835 22689 ft 356 kts 134°
2026-05-05 17:57 49.06386 10.36549 22440 ft 354 kts 134°
2026-05-05 17:57 49.04691 10.39244 22188 ft 352 kts 134°
2026-05-05 17:57 49.03001 10.41944 21937 ft 351 kts 134°
2026-05-05 17:58 49.01327 10.44632 21682 ft 349 kts 134°
2026-05-05 17:58 48.99660 10.47313 21423 ft 348 kts 134°
2026-05-05 17:58 48.97993 10.49976 21185 ft 347 kts 134°
2026-05-05 17:58 48.96351 10.52585 20947 ft 345 kts 134°
2026-05-05 17:59 48.94694 10.55218 20689 ft 344 kts 134°
2026-05-05 17:59 48.93028 10.57875 20433 ft 342 kts 134°
2026-05-05 17:59 48.91387 10.60493 20186 ft 341 kts 134°
2026-05-05 17:59 48.89752 10.63096 19935 ft 340 kts 134°
2026-05-05 18:00 48.88130 10.65672 19615 ft 337 kts 134°
2026-05-05 18:00 48.86511 10.68237 19213 ft 335 kts 134°
2026-05-05 18:00 48.84925 10.70743 18832 ft 333 kts 134°
2026-05-05 18:00 48.83326 10.73263 18444 ft 331 kts 134°
2026-05-05 18:01 48.82250 10.74959 18178 ft 330 kts 134°
2026-05-05 18:01 48.80151 10.78276 17683 ft 327 kts 134°
2026-05-05 18:01 48.78578 10.80752 17317 ft 325 kts 134°
2026-05-05 18:01 48.77010 10.83214 16949 ft 324 kts 134°
2026-05-05 18:02 48.75447 10.85666 16591 ft 322 kts 134°
2026-05-05 18:02 48.73897 10.88091 16250 ft 320 kts 134°
2026-05-05 18:02 48.72503 10.90695 15900 ft 318 kts 121°
2026-05-05 18:02 48.71365 10.93564 15550 ft 317 kts 121°
2026-05-05 18:03 48.70235 10.96413 15218 ft 315 kts 121°
2026-05-05 18:03 48.69110 10.99247 14867 ft 313 kts 121°
2026-05-05 18:03 48.68349 11.01155 14653 ft 312 kts 121°
2026-05-05 18:03 48.67228 11.03959 14315 ft 311 kts 121°
2026-05-05 18:04 48.66111 11.06746 13979 ft 309 kts 121°
2026-05-05 18:04 48.65000 11.09525 13644 ft 308 kts 121°
2026-05-05 18:04 48.63893 11.12291 13315 ft 306 kts 121°
2026-05-05 18:04 48.62805 11.15001 12977 ft 305 kts 121°
2026-05-05 18:05 48.61695 11.17767 12633 ft 303 kts 121°
2026-05-05 18:05 48.60623 11.20438 12291 ft 301 kts 121°
2026-05-05 18:05 48.59522 11.23174 11940 ft 300 kts 121°
2026-05-05 18:05 48.58455 11.25830 11595 ft 298 kts 121°
2026-05-05 18:06 48.57382 11.28500 11244 ft 297 kts 121°
2026-05-05 18:06 48.56658 11.30294 11010 ft 296 kts 121°
2026-05-05 18:06 48.55248 11.33797 10539 ft 294 kts 121°
2026-05-05 18:06 48.54189 11.36428 10176 ft 292 kts 121°
2026-05-05 18:07 48.53123 11.39072 9805 ft 291 kts 121°
2026-05-05 18:07 48.52082 11.41637 9444 ft 289 kts 122°
2026-05-05 18:07 48.51037 11.44211 9084 ft 287 kts 121°
2026-05-05 18:07 48.49988 11.46806 8831 ft 285 kts 121°
2026-05-05 18:08 48.48954 11.49355 8436 ft 285 kts 122°
2026-05-05 18:08 48.47917 11.51899 8038 ft 283 kts 122°
2026-05-05 18:08 48.46904 11.54386 7657 ft 282 kts 122°
2026-05-05 18:08 48.45871 11.56921 7252 ft 280 kts 122°
2026-05-05 18:09 48.44914 11.59465 6861 ft 278 kts 114°
2026-05-05 18:09 48.44289 11.62207 6451 ft 277 kts 103°
2026-05-05 18:09 48.44036 11.65059 6207 ft 275 kts 91°
2026-05-05 18:09 48.44143 11.67941 6200 ft 276 kts 83°
2026-05-05 18:10 48.44372 11.70810 6204 ft 277 kts 83°
2026-05-05 18:10 48.44594 11.73691 6206 ft 277 kts 83°
2026-05-05 18:10 48.44810 11.76558 6092 ft 273 kts 83°
2026-05-05 18:10 48.45018 11.79336 5947 ft 260 kts 83°
2026-05-05 18:11 48.45212 11.81940 5831 ft 248 kts 83°
2026-05-05 18:11 48.45405 11.84513 5584 ft 242 kts 83°
2026-05-05 18:11 48.45596 11.87029 5262 ft 240 kts 83°
2026-05-05 18:11 48.45782 11.89491 4931 ft 239 kts 83°
2026-05-05 18:12 48.45969 11.91968 4599 ft 238 kts 83°
2026-05-05 18:12 48.46156 11.94441 4288 ft 236 kts 83°
2026-05-05 18:12 48.46340 11.96889 4198 ft 235 kts 83°
2026-05-05 18:12 48.46524 11.99344 4204 ft 237 kts 83°
2026-05-05 18:13 48.46711 12.01850 4205 ft 237 kts 83°
2026-05-05 18:13 48.46893 12.04286 4204 ft 237 kts 83°
2026-05-05 18:13 48.47077 12.06768 4204 ft 237 kts 83°
2026-05-05 18:13 48.47261 12.09228 4205 ft 237 kts 83°
2026-05-05 18:14 48.47358 12.11707 4199 ft 237 kts 98°
2026-05-05 18:14 48.46741 12.13907 4201 ft 223 kts 131°
2026-05-05 18:14 48.45468 12.15151 4206 ft 216 kts 165°
2026-05-05 18:14 48.44010 12.15554 4209 ft 215 kts 173°
2026-05-05 18:15 48.42506 12.15721 4197 ft 214 kts 188°
2026-05-05 18:15 48.41122 12.14964 4209 ft 213 kts 211°
2026-05-05 18:15 48.39985 12.13602 4205 ft 212 kts 229°
2026-05-05 18:15 48.39173 12.11805 4205 ft 212 kts 245°
2026-05-05 18:16 48.38752 12.09689 4205 ft 212 kts 263°
2026-05-05 18:16 48.38589 12.07486 4206 ft 212 kts 264°
2026-05-05 18:16 48.38427 12.05282 4205 ft 212 kts 264°
2026-05-05 18:16 48.38263 12.03070 4126 ft 213 kts 264°
2026-05-05 18:17 48.38098 12.00858 3888 ft 212 kts 264°
2026-05-05 18:17 48.37934 11.98657 3617 ft 210 kts 264°
2026-05-05 18:17 48.37764 11.96384 3333 ft 223 kts 264°
2026-05-05 18:17 48.37595 11.94131 3039 ft 211 kts 264°
2026-05-05 18:18 48.37435 11.91993 2783 ft 199 kts 264°
2026-05-05 18:18 48.37285 11.90009 2522 ft 184 kts 264°
2026-05-05 18:18 48.37150 11.88200 2310 ft 164 kts 264°
2026-05-05 18:18 48.37029 11.86535 2061 ft 155 kts 264°
2026-05-05 18:19 48.36906 11.84970 1825 ft 149 kts 263°
2026-05-05 18:19 48.36789 11.83454 1675 ft 145 kts 264°
2026-05-05 18:19 48.36678 11.81959 1509 ft 142 kts 263°
2026-05-05 18:19 48.36570 11.80581 1467 ft 113 kts 261°
2026-05-05 18:20 48.36501 11.79664 1465 ft 63 kts 263°
2026-05-05 18:20 48.36460 11.79146 1467 ft 39 kts 262°
2026-05-05 18:20 48.36382 11.78864 1460 ft 25 kts 232°
2026-05-05 18:20 48.36292 11.78684 1460 ft 17 kts 233°
2026-05-05 18:21 48.36241 11.78582 1461 ft 7 kts 232°
2026-05-05 18:21 48.36213 11.78531 1463 ft 8 kts 226°
2026-05-05 18:21 48.36153 11.78484 1465 ft 7 kts 195°
2026-05-05 18:21 48.36108 11.78480 1467 ft 6 kts 181°
2026-05-05 18:22 48.36070 11.78488 1467 ft 6 kts 168°
2026-05-05 18:22 48.36036 11.78561 1462 ft 9 kts 98°
2026-05-05 18:22 48.36040 11.78649 1467 ft 8 kts 84°
2026-05-05 18:22 48.36045 11.78724 1467 ft 7 kts 83°
2026-05-05 18:23 48.36054 11.78839 1464 ft 14 kts 83°
2026-05-05 18:23 48.36065 11.78991 1458 ft 15 kts 84°
2026-05-05 18:23 48.36077 11.79146 1468 ft 12 kts 83°
2026-05-05 18:23 48.36083 11.79256 1468 ft 10 kts 94°
2026-05-05 18:24 48.36045 11.79324 1463 ft 8 kts 155°
2026-05-05 18:24 48.35995 11.79338 1463 ft 6 kts 175°
2026-05-05 18:24 48.35952 11.79342 1467 ft 9 kts 175°
2026-05-05 18:24 48.35859 11.79382 1460 ft 16 kts 170°
2026-05-05 18:25 48.35742 11.79404 1467 ft 18 kts 173°
2026-05-05 18:25 48.35656 11.79419 1458 ft 20 kts 173°
2026-05-05 18:25 48.35522 11.79442 1467 ft 11 kts 173°
2026-05-05 18:25 48.35471 11.79437 1467 ft 6 kts 217°
2026-05-05 18:26 48.35453 11.79388 1458 ft 5 kts 242°
2026-05-05 18:26 48.35449 11.79345 1461 ft 4 kts 267°
2026-05-05 18:26 48.35448 11.79330 1464 ft 1 kts 261°
2026-05-05 18:26 48.35447 11.79319 1460 ft 1 kts 261°
2026-05-05 18:27 48.35444 11.79299 1465 ft 1 kts 259°
2026-05-05 18:27 48.35444 11.79298 1465 ft 0 kts 259°